NANOZOND 1 (RS49S) (57190 NORAD) Tracking and Keplerian Element Data

This shows tracking and keplerian element data for the satellite.

Feedback or suggestion? Click here.




ElementValue
Catalog57190
NameNANOZOND 1 (RS49S)
Epoch Orbit7142
Epoch Day286.86958491
Epoch Year2024
RAAN340.7046
Inclination97.5972
Eccentricity0.0010789
Argument of Perigee69.3617
Mean Anonmoly290.8773
Mean Motion15.19001474
Decay Rate0.00031306
L11 57190U 23091AA 24286.86958491 .00031306 00000+0 14920-2 0 9999
L22 57190 97.5972 340.7046 0010789 69.3617 290.8773 15.19001474 71426



Live tracking and technical data element details for NANOZOND 1 (RS49S) (NORAD 57190). NANOZOND 1 (RS49S) can be tracked NOW for your location showing map with azimuth and elevation plus other details from your city location.







IsCatalogInMostPopularTable: catalog: 57190, numindb: 26
Update: records affected: 1



GetName: 57190 NANOZOND 1 (RS49S)

Hit Count: updated at: Thu, 23 Jan 2025 18:21:12 GMT